LHX2CL EDDM-EDDH

Flight info

Callsign LHX2CL
Flight time 0h 59m
Altitude 34000
Route INPUD2N INPUD Y102 UPALA M726 NARUS DCT ABGUS DCT DIRBO/N0374F230 T902 RARUP RARUP6A
Aircraft A320/M-SDE3FGHIRWY/LB1

Departure

Time 2026-05-05 18:22
Airport Munich Airport (EDDM)

Arrival

Time 2026-05-05 19:21
Airport Hamburg Helmut Schmidt Airport (EDDH)
Time Latitude Longitude Altitude Speed Heading
2026-05-05 17:35 48.35467 11.80267 1486 ft 0 kts 83°
2026-05-05 17:35 48.35466 11.80260 1486 ft 0 kts 83°
2026-05-05 18:03 48.35465 11.80239 1475 ft 4 kts 83°
2026-05-05 18:04 48.35461 11.80199 1476 ft 3 kts 83°
2026-05-05 18:04 48.35459 11.80171 1471 ft 4 kts 42°
2026-05-05 18:04 48.35439 11.80164 1472 ft 4 kts 353°
2026-05-05 18:04 48.35424 11.80167 1473 ft 0 kts 353°
2026-05-05 18:07 48.35439 11.80164 1472 ft 5 kts 353°
2026-05-05 18:08 48.35490 11.80155 1485 ft 9 kts 353°
2026-05-05 18:08 48.35549 11.80145 1472 ft 9 kts 353°
2026-05-05 18:08 48.35623 11.80130 1482 ft 14 kts 348°
2026-05-05 18:08 48.35730 11.80075 1482 ft 18 kts 352°
2026-05-05 18:09 48.35831 11.80048 1483 ft 13 kts 327°
2026-05-05 18:09 48.35845 11.79914 1481 ft 14 kts 264°
2026-05-05 18:09 48.35834 11.79758 1478 ft 16 kts 262°
2026-05-05 18:09 48.35826 11.79671 1485 ft 3 kts 264°
2026-05-05 18:10 48.35826 11.79663 1485 ft 0 kts 264°
2026-05-05 18:11 48.35825 11.79654 1485 ft 3 kts 264°
2026-05-05 18:11 48.35821 11.79595 1485 ft 7 kts 264°
2026-05-05 18:11 48.35831 11.79527 1485 ft 7 kts 319°
2026-05-05 18:11 48.35887 11.79514 1479 ft 9 kts 354°
2026-05-05 18:12 48.35951 11.79504 1485 ft 9 kts 353°
2026-05-05 18:12 48.35982 11.79498 1482 ft 0 kts 353°
2026-05-05 18:14 48.35988 11.79497 1483 ft 5 kts 353°
2026-05-05 18:15 48.36056 11.79485 1480 ft 12 kts 353°
2026-05-05 18:15 48.36147 11.79469 1485 ft 14 kts 353°
2026-05-05 18:15 48.36218 11.79540 1485 ft 14 kts 74°
2026-05-05 18:15 48.36228 11.79679 1480 ft 14 kts 82°
2026-05-05 18:16 48.36247 11.79879 1485 ft 25 kts 84°
2026-05-05 18:16 48.36265 11.80143 1482 ft 26 kts 83°
2026-05-05 18:16 48.36287 11.80418 1485 ft 27 kts 83°
2026-05-05 18:16 48.36309 11.80696 1472 ft 28 kts 83°
2026-05-05 18:17 48.36329 11.80972 1485 ft 22 kts 83°
2026-05-05 18:17 48.36345 11.81169 1485 ft 13 kts 81°
2026-05-05 18:17 48.36406 11.81204 1476 ft 11 kts 320°
2026-05-05 18:17 48.36443 11.81098 1478 ft 12 kts 293°
2026-05-05 18:18 48.36478 11.80975 1483 ft 13 kts 293°
2026-05-05 18:18 48.36493 11.80921 1480 ft 0 kts 293°
2026-05-05 18:20 48.36505 11.80882 1481 ft 10 kts 293°
2026-05-05 18:20 48.36548 11.80728 1480 ft 19 kts 293°
2026-05-05 18:21 48.36568 11.80595 1485 ft 20 kts 251°
2026-05-05 18:21 48.36547 11.80268 1485 ft 60 kts 263°
2026-05-05 18:21 48.36472 11.79294 1486 ft 124 kts 263°
2026-05-05 18:21 48.36357 11.77793 1680 ft 155 kts 265°
2026-05-05 18:22 48.36243 11.76220 2458 ft 148 kts 267°
2026-05-05 18:22 48.36137 11.74670 3026 ft 155 kts 267°
2026-05-05 18:22 48.36004 11.72955 3358 ft 175 kts 265°
2026-05-05 18:22 48.35853 11.71040 3666 ft 194 kts 266°
2026-05-05 18:23 48.35700 11.68933 3996 ft 213 kts 266°
2026-05-05 18:23 48.35911 11.66701 4563 ft 225 kts 298°
2026-05-05 18:23 48.37094 11.65034 5012 ft 252 kts 332°
2026-05-05 18:23 48.38844 11.64232 5568 ft 271 kts 346°
2026-05-05 18:24 48.40737 11.63792 6365 ft 279 kts 350°
2026-05-05 18:24 48.42679 11.63477 7208 ft 282 kts 352°
2026-05-05 18:24 48.44616 11.63188 8027 ft 285 kts 351°
2026-05-05 18:24 48.46604 11.62787 8807 ft 291 kts 348°
2026-05-05 18:25 48.48612 11.62270 9618 ft 295 kts 346°
2026-05-05 18:25 48.49933 11.61764 10089 ft 298 kts 337°
2026-05-05 18:25 48.52687 11.60297 10435 ft 329 kts 336°
2026-05-05 18:25 48.54887 11.59084 10902 ft 341 kts 336°
2026-05-05 18:26 48.57138 11.57837 11598 ft 347 kts 336°
2026-05-05 18:26 48.59417 11.56575 12333 ft 351 kts 336°
2026-05-05 18:26 48.61690 11.55321 13037 ft 355 kts 336°
2026-05-05 18:26 48.64021 11.54039 13731 ft 359 kts 337°
2026-05-05 18:27 48.66381 11.52745 14344 ft 363 kts 337°
2026-05-05 18:27 48.68853 11.51831 14936 ft 371 kts 349°
2026-05-05 18:27 48.71423 11.51308 15540 ft 374 kts 350°
2026-05-05 18:27 48.74015 11.50791 16165 ft 378 kts 351°
2026-05-05 18:28 48.79291 11.49759 17361 ft 386 kts 351°
2026-05-05 18:28 48.81967 11.49235 17957 ft 390 kts 351°
2026-05-05 18:28 48.84668 11.48704 18487 ft 394 kts 351°
2026-05-05 18:29 48.87397 11.48162 19000 ft 397 kts 351°
2026-05-05 18:29 48.90150 11.47610 19518 ft 400 kts 351°
2026-05-05 18:29 48.92919 11.47053 20040 ft 404 kts 351°
2026-05-05 18:29 48.95712 11.46491 20571 ft 406 kts 352°
2026-05-05 18:30 48.98525 11.45927 21052 ft 409 kts 351°
2026-05-05 18:30 49.01326 11.45365 21524 ft 413 kts 351°
2026-05-05 18:30 49.04183 11.44791 22016 ft 416 kts 351°
2026-05-05 18:30 49.07064 11.44214 22493 ft 419 kts 351°
2026-05-05 18:31 49.09959 11.43632 22954 ft 422 kts 351°
2026-05-05 18:31 49.12880 11.43044 23407 ft 425 kts 351°
2026-05-05 18:31 49.15823 11.42448 23790 ft 428 kts 351°
2026-05-05 18:31 49.18784 11.41849 24158 ft 431 kts 352°
2026-05-05 18:32 49.21773 11.41243 24518 ft 434 kts 352°
2026-05-05 18:32 49.24774 11.40633 24884 ft 437 kts 352°
2026-05-05 18:32 49.27796 11.40010 25248 ft 440 kts 352°
2026-05-05 18:32 49.30844 11.39371 25609 ft 442 kts 352°
2026-05-05 18:33 49.33857 11.38732 25958 ft 445 kts 351°
2026-05-05 18:33 49.36931 11.38078 26318 ft 448 kts 351°
2026-05-05 18:33 49.40028 11.37422 26671 ft 450 kts 352°
2026-05-05 18:33 49.43141 11.36767 27011 ft 453 kts 352°
2026-05-05 18:34 49.46272 11.36103 27364 ft 455 kts 352°
2026-05-05 18:34 49.49417 11.35432 27713 ft 457 kts 352°
2026-05-05 18:34 49.52576 11.34759 28051 ft 460 kts 352°
2026-05-05 18:34 49.55762 11.34084 28372 ft 463 kts 352°
2026-05-05 18:35 49.58957 11.33405 28696 ft 465 kts 352°
2026-05-05 18:35 49.62170 11.32721 29020 ft 468 kts 352°
2026-05-05 18:35 49.65364 11.32042 29330 ft 470 kts 352°
2026-05-05 18:35 49.68606 11.31354 29712 ft 471 kts 352°
2026-05-05 18:36 49.71853 11.30659 30013 ft 472 kts 352°
2026-05-05 18:36 49.75113 11.29955 30264 ft 474 kts 352°
2026-05-05 18:36 49.78375 11.29246 30507 ft 476 kts 352°
2026-05-05 18:36 49.81668 11.28516 30770 ft 478 kts 352°
2026-05-05 18:37 49.84961 11.27774 31020 ft 480 kts 352°
2026-05-05 18:37 49.88271 11.27021 31313 ft 479 kts 352°
2026-05-05 18:37 49.91555 11.26270 31740 ft 476 kts 352°
2026-05-05 18:37 49.94828 11.25525 32120 ft 475 kts 352°
2026-05-05 18:38 49.98053 11.24792 32478 ft 474 kts 352°
2026-05-05 18:38 50.01313 11.24048 32799 ft 473 kts 352°
2026-05-05 18:38 50.04566 11.23305 33068 ft 472 kts 352°
2026-05-05 18:38 50.07819 11.22702 33336 ft 471 kts 357°
2026-05-05 18:39 50.11092 11.22656 33599 ft 470 kts
2026-05-05 18:39 50.14358 11.22688 33780 ft 467 kts
2026-05-05 18:39 50.20769 11.22736 33805 ft 457 kts
2026-05-05 18:40 50.27112 11.22766 33806 ft 456 kts
2026-05-05 18:40 50.33414 11.22794 33805 ft 455 kts
2026-05-05 18:41 50.39754 11.22259 33805 ft 458 kts 354°
2026-05-05 18:41 50.46105 11.21294 33803 ft 458 kts 354°
2026-05-05 18:42 50.52449 11.20330 33794 ft 458 kts 354°
2026-05-05 18:42 50.58803 11.19373 33803 ft 459 kts 355°
2026-05-05 18:43 50.65131 11.18412 33790 ft 460 kts 355°
2026-05-05 18:43 50.71507 11.17546 33789 ft 460 kts 356°
2026-05-05 18:44 50.77919 11.16918 33792 ft 461 kts 357°
2026-05-05 18:44 50.84317 11.16322 33787 ft 462 kts 356°
2026-05-05 18:45 50.90740 11.15670 33782 ft 464 kts 356°
2026-05-05 18:45 50.97147 11.14979 33785 ft 465 kts 356°
2026-05-05 18:46 51.03603 11.14289 33788 ft 465 kts 356°
2026-05-05 18:46 51.10076 11.13602 33789 ft 467 kts 355°
2026-05-05 18:47 51.16571 11.12913 33789 ft 468 kts 355°
2026-05-05 18:47 51.23079 11.12226 33794 ft 469 kts 355°
2026-05-05 18:48 51.29604 11.11532 33806 ft 470 kts 354°
2026-05-05 18:48 51.36081 11.10841 33807 ft 470 kts 354°
2026-05-05 18:49 51.42615 11.10127 33813 ft 470 kts 354°
2026-05-05 18:49 51.49149 11.09419 33833 ft 471 kts 355°
2026-05-05 18:50 51.55697 11.08727 33830 ft 471 kts 354°
2026-05-05 18:50 51.62231 11.08032 33834 ft 470 kts 354°
2026-05-05 18:51 51.68718 11.07324 33843 ft 470 kts 354°
2026-05-05 18:51 51.75245 11.06594 33840 ft 470 kts 354°
2026-05-05 18:52 51.81758 11.05877 33850 ft 469 kts 353°
2026-05-05 18:52 51.88262 11.05123 33859 ft 468 kts 352°
2026-05-05 18:53 51.94716 11.03873 33860 ft 466 kts 349°
2026-05-05 18:53 52.01134 11.02341 33867 ft 466 kts 348°
2026-05-05 18:54 52.07503 11.00872 33880 ft 465 kts 348°
2026-05-05 18:54 52.13906 10.99503 33879 ft 463 kts 349°
2026-05-05 18:55 52.20298 10.98160 33876 ft 463 kts 349°
2026-05-05 18:55 52.26676 10.96793 33884 ft 462 kts 348°
2026-05-05 18:56 52.29852 10.96113 33576 ft 458 kts 348°
2026-05-05 18:56 52.32958 10.95446 32824 ft 458 kts 348°
2026-05-05 18:56 52.36127 10.94753 31968 ft 462 kts 348°
2026-05-05 18:56 52.39310 10.94051 31316 ft 460 kts 349°
2026-05-05 18:57 52.42472 10.93359 30758 ft 456 kts 349°
2026-05-05 18:57 52.45605 10.92680 30238 ft 452 kts 349°
2026-05-05 18:57 52.48722 10.92006 29360 ft 455 kts 349°
2026-05-05 18:57 52.51874 10.91321 28471 ft 458 kts 348°
2026-05-05 18:58 52.55025 10.90632 27792 ft 455 kts 349°
2026-05-05 18:58 52.58145 10.89946 27189 ft 451 kts 349°
2026-05-05 18:58 52.61244 10.89266 26584 ft 447 kts 349°
2026-05-05 18:58 52.64346 10.88586 25519 ft 454 kts 349°
2026-05-05 18:59 52.67488 10.87894 24643 ft 457 kts 349°
2026-05-05 18:59 52.70590 10.87213 23973 ft 455 kts 349°
2026-05-05 18:59 52.73714 10.86530 23326 ft 451 kts 349°
2026-05-05 18:59 52.76817 10.85854 22667 ft 446 kts 350°
2026-05-05 19:00 52.79868 10.85183 22080 ft 440 kts 350°
2026-05-05 19:00 52.82878 10.84516 21485 ft 434 kts 350°
2026-05-05 19:00 52.85862 10.83858 20892 ft 430 kts 351°
2026-05-05 19:00 52.88788 10.83246 20641 ft 417 kts 351°
2026-05-05 19:01 52.91546 10.82198 20511 ft 398 kts 336°
2026-05-05 19:01 52.93927 10.80107 20383 ft 379 kts 321°
2026-05-05 19:01 52.95817 10.77221 20253 ft 363 kts 310°
2026-05-05 19:01 52.97479 10.74233 20084 ft 353 kts 310°
2026-05-05 19:02 52.99128 10.71264 19742 ft 348 kts 310°
2026-05-05 19:02 53.00769 10.68308 19330 ft 346 kts 310°
2026-05-05 19:02 53.02395 10.65384 18916 ft 345 kts 310°
2026-05-05 19:02 53.04020 10.62458 18515 ft 343 kts 311°
2026-05-05 19:03 53.05636 10.59550 18115 ft 342 kts 311°
2026-05-05 19:03 53.07245 10.56651 17684 ft 340 kts 310°
2026-05-05 19:03 53.08843 10.53769 17274 ft 338 kts 310°
2026-05-05 19:03 53.10430 10.50903 16882 ft 336 kts 310°
2026-05-05 19:04 53.12002 10.48055 16502 ft 333 kts 310°
2026-05-05 19:04 53.13546 10.45256 16126 ft 331 kts 311°
2026-05-05 19:04 53.15098 10.42443 15765 ft 329 kts 310°
2026-05-05 19:04 53.16641 10.39637 15408 ft 327 kts 311°
2026-05-05 19:05 53.18171 10.36850 15057 ft 325 kts 311°
2026-05-05 19:05 53.19694 10.34079 14705 ft 323 kts 311°
2026-05-05 19:05 53.21206 10.31323 14383 ft 321 kts 310°
2026-05-05 19:05 53.22708 10.28583 14040 ft 319 kts 310°
2026-05-05 19:06 53.24201 10.25860 13698 ft 317 kts 311°
2026-05-05 19:06 53.25685 10.23144 13322 ft 316 kts 311°
2026-05-05 19:06 53.27142 10.20473 12953 ft 314 kts 311°
2026-05-05 19:06 53.28608 10.17784 12590 ft 312 kts 311°
2026-05-05 19:07 53.30067 10.15106 12219 ft 310 kts 311°
2026-05-05 19:07 53.31517 10.12449 11872 ft 308 kts 311°
2026-05-05 19:07 53.32955 10.09809 11616 ft 306 kts 310°
2026-05-05 19:07 53.34382 10.07179 11361 ft 305 kts 310°
2026-05-05 19:08 53.35799 10.04559 11106 ft 303 kts 310°
2026-05-05 19:08 53.37350 10.02177 10929 ft 304 kts 327°
2026-05-05 19:08 53.39318 10.00966 10594 ft 305 kts 351°
2026-05-05 19:08 53.41423 10.01258 10228 ft 306 kts 17°
2026-05-05 19:09 53.43242 10.02981 9867 ft 307 kts 42°
2026-05-05 19:09 53.44626 10.05740 9530 ft 303 kts 53°
2026-05-05 19:09 53.45828 10.08534 9264 ft 297 kts 54°
2026-05-05 19:09 53.47016 10.11333 8995 ft 292 kts 54°
2026-05-05 19:10 53.48178 10.14082 8726 ft 286 kts 54°
2026-05-05 19:10 53.49318 10.16785 8485 ft 281 kts 54°
2026-05-05 19:10 53.50443 10.19434 8220 ft 276 kts 52°
2026-05-05 19:10 53.51844 10.21530 7976 ft 270 kts 25°
2026-05-05 19:11 53.53694 10.22266 7888 ft 278 kts 357°
2026-05-05 19:11 53.55556 10.21459 7898 ft 279 kts 329°
2026-05-05 19:11 53.56964 10.19359 7899 ft 274 kts 302°
2026-05-05 19:11 53.57628 10.16422 7891 ft 270 kts 275°
2026-05-05 19:12 53.57385 10.13306 7891 ft 271 kts 247°
2026-05-05 19:12 53.56426 10.10569 7889 ft 273 kts 235°
2026-05-05 19:12 53.55338 10.07963 7727 ft 272 kts 234°
2026-05-05 19:12 53.54237 10.05370 7309 ft 272 kts 234°
2026-05-05 19:13 53.53137 10.02785 6900 ft 272 kts 234°
2026-05-05 19:13 53.52037 10.00198 6489 ft 272 kts 234°
2026-05-05 19:13 53.50936 9.97605 6066 ft 273 kts 234°
2026-05-05 19:13 53.49835 9.95012 5640 ft 272 kts 234°
2026-05-05 19:14 53.48735 9.92423 5225 ft 272 kts 234°
2026-05-05 19:14 53.47651 9.89875 4987 ft 264 kts 234°
2026-05-05 19:14 53.46607 9.87441 4705 ft 259 kts 234°
2026-05-05 19:14 53.45550 9.84999 4311 ft 259 kts 233°
2026-05-05 19:15 53.44689 9.82405 4088 ft 251 kts 252°
2026-05-05 19:15 53.44516 9.79579 3873 ft 242 kts 281°
2026-05-05 19:15 53.45159 9.77075 3660 ft 230 kts 312°
2026-05-05 19:15 53.46408 9.75584 3499 ft 218 kts 345°
2026-05-05 19:16 53.47864 9.75450 3342 ft 207 kts 17°
2026-05-05 19:16 53.49179 9.76272 3211 ft 198 kts 25°
2026-05-05 19:16 53.50433 9.77169 3029 ft 194 kts 25°
2026-05-05 19:16 53.51663 9.78053 2858 ft 191 kts 26°
2026-05-05 19:17 53.52835 9.79063 2672 ft 186 kts 34°
2026-05-05 19:17 53.53777 9.80365 2585 ft 171 kts 48°
2026-05-05 19:17 53.54518 9.81862 2414 ft 163 kts 51°
2026-05-05 19:17 53.55245 9.83301 2183 ft 160 kts 49°
2026-05-05 19:18 53.55969 9.84697 1943 ft 157 kts 50°
2026-05-05 19:18 53.56670 9.86038 1756 ft 146 kts 50°
2026-05-05 19:18 53.57312 9.87300 1504 ft 140 kts 50°
2026-05-05 19:18 53.57957 9.88554 1316 ft 144 kts 51°
2026-05-05 19:19 53.58596 9.89866 1112 ft 146 kts 51°
2026-05-05 19:19 53.59247 9.91180 908 ft 146 kts 50°
2026-05-05 19:19 53.59910 9.92490 721 ft 148 kts 50°
2026-05-05 19:19 53.60572 9.93830 515 ft 149 kts 50°
2026-05-05 19:20 53.61227 9.95158 319 ft 149 kts 50°
2026-05-05 19:20 53.61890 9.96490 122 ft 147 kts 51°
2026-05-05 19:20 53.62516 9.97771 41 ft 129 kts 51°
2026-05-05 19:20 53.62973 9.98695 45 ft 69 kts 50°
2026-05-05 19:21 53.63215 9.99186 47 ft 35 kts 50°
2026-05-05 19:21 53.63288 9.99411 45 ft 17 kts 78°
2026-05-05 19:21 53.63285 9.99578 48 ft 9 kts 99°
2026-05-05 19:21 53.63276 9.99664 48 ft 0 kts 99°
2026-05-05 19:22 53.63254 9.99732 48 ft 14 kts 139°
2026-05-05 19:23 53.63157 9.99819 48 ft 17 kts 152°
2026-05-05 19:23 53.63125 9.99931 48 ft 12 kts 49°
2026-05-05 19:23 53.63186 10.00048 48 ft 14 kts 50°
2026-05-05 19:23 53.63249 10.00177 48 ft 12 kts 61°
2026-05-05 19:24 53.63212 10.00247 48 ft 9 kts 177°
2026-05-05 19:24 53.63166 10.00269 46 ft 6 kts 126°
2026-05-05 19:24 53.63166 10.00325 48 ft 4 kts 86°
2026-05-05 19:24 53.63168 10.00367 48 ft 3 kts 87°
2026-05-05 19:25 53.63168 10.00374 48 ft 0 kts 87°